Regional Weather Roundup
Issued by NWS

Home | Current Version | Previous Version | Graphics & Text | Print | Product List | Glossary On
Versions: 1 2 3 4 5 6 7 8 9 10 11 12 13 14 15 16 17 18 19 20 21 22 23 24 25 26 27 28 29 30 31 32 33 34 35 36 37 38 39 40 41 42 43 44 45 46 47 48 49 50
000
ASUS45 KCYS 240510
RWRWY

WYOMING REGIONAL WEATHER ROUNDUP
NATIONAL WEATHER SERVICE CHEYENNE WY
1000 PM MST TUE DEC 23 2014

NOTE:  "FAIR" INDICATES FEW OR NO CLOUDS BELOW 12,000 FEET
WITH NO SIGNIFICANT WEATHER AND/OR OBSTRUCTIONS TO VISIBILITY.

WYZ001-240600-
YELLOWSTONE NATIONAL PARK

CITY           SKY/WX    TMP DP  RH WIND       PRES   REMARKS
LK YELLOWSTONE   N/A     16  12  84 CALM      30.19F
W YELLOWSTONE  NOT AVBL

$$
WYZ002>013-054>058-071-098>099-240600-
NORTHERN WYOMING

CITY           SKY/WX    TMP DP  RH WIND       PRES   REMARKS
JACKSON        CLOUDY    12  10  92 N3        30.23F
CODY           FAIR      34  16  47 W13G26    30.01F WCI  25
GREYBULL       FAIR      21  17  84 CALM      30.11F
WORLAND        FAIR      11   6  81 SE5       30.11S WCI   3
SHERIDAN       FAIR      24  11  57 SW5       29.99F WCI  18
BUFFALO        FAIR      23  10  57 SW9       30.00F WCI  13
GILLETTE       FAIR      26  16  65 SW6       30.03F WCI  19
HULETT           N/A    N/A N/A N/A MISG        N/A
NEWCASTLE      FAIR      18  14  86 N8        30.07F WCI   7

$$
WYZ014>020-022>026-101>103-240600-
CENTRAL WYOMING

CITY           SKY/WX    TMP DP  RH WIND       PRES   REMARKS
BIG PINEY      FAIR      14   6  70 NE14      30.18F WCI  -1
PINEDALE       FAIR      16   9  73 N7        30.17F WCI   6
DUBOIS         NOT AVBL
LANDER         FAIR      18   4  54 NW8       30.07F WCI   8
RIVERTON       FAIR      16   5  62 SW8       30.07F WCI   5
CASPER         FAIR      21   9  59 SW14      30.08F WCI   8
DOUGLAS        FAIR      16  11  80 CALM      30.08F

$$
WYZ021-027>030-104>119-240600-
SOUTHERN WYOMING

CITY           SKY/WX    TMP DP  RH WIND       PRES   REMARKS
EVANSTON       FAIR      15   9  76 SW8       30.27S WCI   4
FORT BRIDGER   FAIR      21   9  59 SW16      30.26F WCI   7
ROCK SPRINGS   FAIR      18  10  71 SW16      30.19F WCI   3
DIXON          FAIR       0  -3  85 CALM      30.25S
RAWLINS        FAIR      18   8  65 W15G24    30.15R WCI   4
SARATOGA       FAIR      10   5  79 SE6       30.16S WCI   1
LARAMIE        FAIR       8   1  73 SW12      30.05F WCI  -7
CHEYENNE       FAIR      13   5  70 W8        30.07F WCI   2
TORRINGTON     FAIR      23  14  68 NW5       30.10F WCI  17
PINE BLUFFS    FAIR      23  14  68 NW17G23   30.10S WCI   9

$$



USA.gov is the U.S. government's official web portal to all federal, state and local government web resources and services.